User: anonymous   Login
Location: Abraham Lincoln Continuation High School
(33.9711°N, 117.3662°W)
Time: 14:52:01
(UTC+00:00)
Language:

H-2A R/B - Orbit

View from above orbital plane
View from above orbital plane
View from above satellite
View from above satellite

Ground track
Ground track

The orbit data is extracted from the following two-line orbital elements,

1 38341U 12025E   20334.02758678  .00000355  00000-0  48869-4 0  9996
2 38341  98.5162 139.9062 0056515  63.8583 296.8428 14.84117407461868
Epoch (UTC): 29 November 2020 00:39:43
Eccentricity: 0.0056515
inclination: 98.5162°
perigee height: 577 km
apogee height: 656 km
right ascension of ascending node: 139.9062°
argument of perigee: 63.8583°
revolutions per day: 14.84117407
mean anomaly at epoch: 296.8428°
orbit number at epoch: 46186

The dashed part of the orbit path shows where the satellite is in the earth's shadow,  

DLR